Augusta, GA

1:55 PM EDT on June 27, 2017 (GMT -0400)
Daniel

Weather History for KDNL - December, 2012

Change the Weather History Date:

Saturday, December 1, 2012

  Actual Average Record
Temperature  
Mean Temperature 62 °F -  
Max Temperature 70 °F 60 °F 77 °F (1998)
Min Temperature 53 °F 42 °F 28 °F (1999)
Degree Days  
Heating Degree Days 3    
Month to date heating degree days 3  
Growing Degree Days 11 (Base 50)    
Moisture  
Dew Point 49 °F    
Average Humidity 68    
Maximum Humidity 83    
Minimum Humidity 53    
Precipitation  
Precipitation 0.00 in - - ()
Month to date precipitation 0.00  
Year to date precipitation 40.25  
Sea Level Pressure  
Sea Level Pressure 30.34 in    
Wind  
Wind Speed 3 mph (East)    
Max Wind Speed 7 mph    
Max Gust Speed 9 mph    
Visibility 10 miles    
Events      
Averages and records for this station are not official NWS values.
T = Trace of Precipitation, MM = Missing Value Source: NWS Daily Summary

Daily Weather History Graph

Daily Weather History Graph

Search for Another Location

Airport or City:

Trip Planner

Search our weather history database for the weather conditions in past years. The results will help you decide how hot, cold, wet, or windy it might be!

Date:

Astronomy

Dec. 01, 2012 Rise Set
Actual Time 7:14 AM EST 5:20 PM EST
Civil Twilight 6:47 AM EST 5:47 PM EST
Nautical Twilight 6:16 AM EST 6:18 PM EST
Astronomical Twilight 5:46 AM EST 6:48 PM EST
Moon 8:06 PM EST (12/1) 9:28 AM EST (12/1)
Length of Visible Light 10h 59m
Length of Day
10h 05m
Waning Gibbous, 92% of the Moon is Illuminated
Dec 1
Waning Gibbous
Dec 6
Last Quarter
Dec 13
New
Dec 20
First Quarter
Dec 28
Full

Hourly Weather History & Observations

Time (EST) Temp. Dew Point Humidity Pressure Visibility Wind Dir Wind Speed Gust Speed Precip Events Conditions
12:53 AM 55.9 °F 46.9 °F 72% 30.31 in 10.0 mi Calm Calm - N/A   Overcast
1:53 AM 55.0 °F 46.9 °F 74% 30.31 in 10.0 mi ESE 4.6 mph - N/A   Overcast
3:53 AM 54.0 °F 48.0 °F 80% 30.31 in 10.0 mi Calm Calm - N/A   Overcast
4:53 AM 53.1 °F 48.0 °F 83% 30.31 in 10.0 mi Calm Calm - N/A   Mostly Cloudy
6:53 AM 53.1 °F 46.9 °F 80% 30.34 in 10.0 mi Calm Calm - N/A   Overcast
7:53 AM 54.0 °F 46.9 °F 77% 30.36 in 10.0 mi ENE 4.6 mph - N/A   Overcast
8:53 AM 55.9 °F 46.9 °F 72% 30.38 in 10.0 mi Calm Calm - N/A   Overcast
9:53 AM 57.9 °F 48.9 °F 72% 30.38 in 10.0 mi Calm Calm - N/A   Overcast
10:53 AM 60.1 °F 48.9 °F 67% 30.39 in 10.0 mi NNE 3.5 mph - N/A   Overcast
11:53 AM 63.0 °F 50.0 °F 63% 30.37 in 10.0 mi Variable 3.5 mph - N/A   Mostly Cloudy
12:53 PM 66.0 °F 51.1 °F 59% 30.34 in 10.0 mi Calm Calm - N/A   Clear
1:53 PM 68.0 °F 51.1 °F 55% 30.32 in 10.0 mi Calm Calm - N/A   Mostly Cloudy
2:53 PM 69.1 °F 51.1 °F 53% 30.31 in 10.0 mi NE 3.5 mph - N/A   Overcast
3:53 PM 66.9 °F 50.0 °F 54% 30.31 in 10.0 mi ENE 6.9 mph - N/A   Overcast
4:53 PM 66.9 °F 50.0 °F 54% 30.32 in 10.0 mi ENE 3.5 mph - N/A   Mostly Cloudy
5:53 PM 64.0 °F 50.0 °F 60% 30.32 in 10.0 mi ENE 4.6 mph - N/A   Clear
6:53 PM 62.1 °F 51.1 °F 67% 30.33 in 10.0 mi ENE 4.6 mph - N/A   Mostly Cloudy
7:53 PM 62.1 °F 51.1 °F 67% 30.34 in 10.0 mi East 5.8 mph - N/A   Overcast
8:53 PM 60.1 °F 50.0 °F 69% 30.35 in 10.0 mi ESE 6.9 mph - N/A   Scattered Clouds
9:53 PM 57.9 °F 50.0 °F 75% 30.34 in 10.0 mi SE 3.5 mph - N/A   Clear
10:53 PM 57.0 °F 50.0 °F 77% 30.35 in 10.0 mi SE 3.5 mph - N/A   Scattered Clouds
11:53 PM 57.0 °F 48.9 °F 74% 30.35 in 10.0 mi ESE 3.5 mph - N/A   Mostly Cloudy